Tracking 25405 objects as of 27-Jan-2022
HD Live streaming from Space Station
objects crossing your sky now

SL-3 R/B

Track SL-3 R/B now!
10-day predictions
SL-3 R/B is classified as:


NORAD ID: 13068
Int'l Code: 1982-013B
Perigee: 535.0 km
Apogee: 564.5 km
Inclination: 81.2 °
Period: 95.5 minutes
Semi major axis: 6920 km
RCS: 5.3655 m2 (large)
Launch date: February 19, 1982
Source: Commonwealth of Independent States (former USSR) (CIS)
Launch site: PLESETSK MISSILE AND SPACE COMPLEX (PKMTR)

Note: This is a ROCKET BODY
aabbcc
Your satellite tracking list
Your tracking list is empty




NASA's NSSDC Master Catalog

Two Line Element Set (TLE):
1 13068U 82013B   22026.60032900  .00001330  00000-0  84764-4 0  9994
2 13068  81.2021  98.2525 0021324 149.4387 210.8085 15.07895716176987
Source of the keplerian elements: AFSPC